GFSFLT2_250_spd_273.txt.gz
Wind_Speed
9 6 6 8 8 8 4 8 14 10 19 24 22 14 15 29 32 29 23 21 17 19 19 21 28 32 28 27 28 26 26 25
9 7 5 5 5 7 9 6 13 11 6 18 11 18 20 33 35 26 22 23 23 20 18 18 21 23 26 27 30 32 31 31
10 7 6 6 9 9 9 9 10 14 11 17 20 16 19 24 27 34 17 17 21 25 21 20 18 21 24 28 31 35 34 31
10 7 8 8 9 10 10 14 16 14 14 16 19 15 17 18 17 20 27 28 22 22 26 23 22 21 26 27 29 35 36 34
14 12 11 10 11 12 14 15 18 19 22 23 23 23 27 21 14 23 25 34 33 25 25 28 26 26 25 27 31 31 33 33
16 15 14 12 13 12 15 21 23 19 22 22 23 24 27 26 19 8 31 32 27 24 29 26 29 28 29 29 28 32 32 32
18 17 15 15 15 15 17 21 27 25 25 26 20 23 29 33 20 22 26 30 26 28 25 28 26 28 30 31 31 30 32 34
23 20 18 19 19 16 17 23 26 32 33 34 38 31 33 38 39 35 30 32 31 24 23 21 22 22 25 29 31 31 31 35
25 22 23 24 24 19 22 26 28 29 36 40 35 37 40 42 42 41 36 32 29 25 17 14 13 12 16 13 18 27 31 34
27 26 25 32 27 22 25 28 32 29 34 43 43 43 43 45 48 50 49 33 21 18 10 9 8 15 16 15 13 15 23 30
30 30 31 36 27 27 30 30 35 36 41 46 45 44 43 44 46 46 45 30 13 11 6 10 8 12 8 12 13 13 15 21
30 32 35 41 25 31 38 34 39 41 45 48 54 50 45 50 49 47 40 28 9 9 13 1 13 18 40 21 20 14 21 22
33 34 39 38 34 36 40 43 42 44 44 46 54 53 49 56 51 43 31 24 10 9 5 11 21 47 42 57 57 43 32 30
38 39 38 38 40 43 43 47 50 47 51 53 55 56 50 56 55 41 23 15 10 21 5 15 10 20 12 38 49 51 46 43
42 46 44 40 41 44 48 54 51 53 55 58 59 60 58 58 60 38 17 19 23 31 30 38 35 51 65 45 70 67 63 60
47 45 50 46 45 48 54 56 53 56 57 60 60 68 57 57 50 34 17 23 32 27 39 52 53 61 57 46 58 54 62 58
49 52 53 51 52 53 58 61 59 60 60 60 63 62 56 56 42 33 22 23 37 36 42 52 59 57 68 58 67 73 69 63
50 54 62 59 57 57 62 61 63 64 61 63 63 54 54 51 38 31 20 21 39 51 50 50 56 58 67 69 60 61 60 51
57 59 61 63 63 65 67 64 62 61 63 62 50 40 31 31 22 22 20 21 36 44 55 60 60 63 64 70 74 64 57 58

GFSFLT2_250_spd_276.txt.gz
Wind_Speed
15 15 11 7 0 5 9 12 13 13 16 16 18 15 19 17 22 28 30 31 18 16 17 19 23 22 25 23 20 18 22 24
18 13 12 8 4 3 5 7 8 7 10 14 14 13 12 25 27 27 31 14 15 16 17 16 19 22 21 25 28 27 23 26
19 16 13 10 8 9 4 4 3 6 6 6 7 12 11 13 28 38 25 5 13 24 17 17 17 19 21 23 24 26 27 26
22 19 16 11 10 9 10 8 4 6 7 8 12 11 10 8 12 18 19 16 23 29 19 13 16 17 19 18 19 21 25 27
26 23 19 15 12 9 7 7 7 7 8 7 8 13 13 15 14 16 22 23 25 25 15 13 11 17 19 17 17 19 23 24
28 23 22 20 16 12 9 10 9 11 12 8 12 13 16 18 19 16 19 26 25 26 19 16 12 11 19 21 22 21 22 23
27 25 23 22 20 14 11 14 16 16 17 20 18 24 29 29 27 21 20 21 27 25 19 16 19 18 21 22 24 25 25 27
29 28 25 23 24 14 13 18 17 23 21 19 23 22 26 28 25 22 22 23 28 30 26 18 21 19 14 11 20 28 27 28
33 29 27 27 23 16 13 19 21 21 26 29 27 31 29 31 29 29 29 24 25 23 24 20 17 15 9 14 13 13 12 17
35 30 31 31 21 18 15 18 25 28 28 31 29 30 35 37 32 33 34 30 22 16 20 15 8 16 16 16 19 11 31 10
35 33 32 29 23 21 18 20 28 31 31 33 35 36 37 37 39 45 37 27 8 20 17 5 5 12 15 26 24 27 42 41
36 32 31 30 27 28 21 23 33 35 36 36 36 37 42 41 44 47 40 32 13 18 21 17 5 18 19 27 33 37 39 54
33 31 28 30 32 32 26 29 36 37 36 42 44 42 40 43 48 45 37 31 17 26 27 26 15 17 17 48 39 37 51 63
30 28 27 31 35 35 33 37 38 38 39 42 44 45 37 42 45 47 41 37 24 29 36 31 21 27 36 46 43 51 38 37
33 33 31 34 37 39 40 41 40 41 44 45 46 46 45 43 45 45 42 44 28 31 41 44 34 40 46 43 53 56 45 42
37 38 38 34 39 41 40 41 43 44 45 46 47 48 47 47 45 38 40 37 35 31 39 43 43 38 48 47 64 70 74 65
38 40 39 41 42 41 42 46 48 49 47 46 46 44 41 37 31 28 31 34 40 41 34 36 35 44 54 56 58 77 70 68
39 40 43 46 45 43 47 48 49 53 53 49 45 42 35 26 28 30 31 32 38 45 44 35 41 50 60 59 62 68 62 70
43 45 48 49 49 49 51 50 52 51 52 49 47 48 49 40 24 31 37 33 30 34 41 41 46 49 62 68 76 73 63 63

GFSFLT2_250_spd_279.txt.gz
Wind_Speed
14 14 8 10 13 11 8 9 11 14 10 10 18 18 17 19 20 21 25 25 30 23 15 17 21 21 19 21 24 26 25 22
17 14 9 11 11 9 10 10 8 8 11 14 17 14 15 21 21 25 25 25 23 17 13 15 18 20 20 19 21 26 27 24
20 17 12 12 9 8 8 8 6 4 3 4 7 9 12 16 17 20 20 21 18 25 26 20 18 17 17 20 23 25 24 25
21 19 14 10 10 7 5 3 2 3 3 5 5 8 11 13 17 19 19 18 19 20 23 19 19 15 17 20 23 21 22 24
23 19 17 16 12 10 5 1 2 1 3 3 8 8 10 12 17 20 21 20 19 22 21 18 18 20 18 23 23 20 19 24
22 20 21 20 14 10 6 6 4 4 5 6 7 9 13 14 15 15 16 20 23 23 26 20 20 21 21 18 23 23 24 25
23 23 25 23 17 13 10 8 9 10 7 8 9 12 15 16 17 15 18 21 22 23 21 15 17 16 15 15 17 22 20 19
26 25 28 26 23 18 14 13 16 15 10 8 10 15 17 17 20 21 21 24 22 22 17 13 5 7 7 14 15 14 19 20
29 26 29 26 27 20 18 18 22 23 20 11 11 13 15 16 19 22 23 22 26 20 17 21 8 12 5 10 8 14 20 27
31 27 29 29 27 26 25 23 26 30 27 21 19 18 19 20 19 21 27 28 21 20 22 23 14 7 14 7 3 11 18 22
33 32 28 27 27 29 30 29 32 34 29 26 27 25 27 29 27 24 25 25 15 16 18 25 23 13 20 15 2 15 11 22
37 35 29 27 28 31 33 34 39 36 30 29 33 28 30 34 34 32 28 27 19 15 29 38 31 28 29 19 4 21 45 39
38 34 30 30 31 33 36 38 36 37 36 33 32 33 38 40 41 43 40 36 30 19 21 34 39 39 37 32 27 48 60 62
37 31 31 37 37 37 42 38 35 37 37 38 38 39 40 39 38 40 43 42 41 35 29 32 42 44 43 49 55 59 54 58
39 32 34 40 42 45 45 35 36 38 39 40 42 43 44 45 43 39 39 42 38 42 35 33 34 45 54 66 57 61 54 47
40 39 42 44 47 47 40 38 39 40 42 44 45 45 46 46 45 42 35 40 45 48 48 36 40 37 41 63 54 57 58 55
44 45 49 50 49 43 40 42 42 45 45 46 46 44 47 47 48 42 46 51 48 49 44 44 44 46 46 38 54 53 58 53
49 51 47 47 44 42 43 42 42 45 47 49 48 48 49 49 51 50 51 47 47 52 47 44 46 46 39 33 39 49 57 64
48 44 43 42 42 42 43 44 44 47 48 50 51 52 55 56 55 54 53 55 55 47 47 53 54 54 42 34 34 43 56 63

GFSFLT2_250_spd_285.txt.gz
Wind_Speed
11 12 9 9 8 12 14 14 14 13 10 10 11 12 14 16 19 20 19 17 13 15 15 12 10 14 13 17 22 24 29 29
7 9 8 9 10 12 13 15 15 12 10 9 11 11 13 15 18 20 23 23 18 17 19 19 16 14 12 17 23 26 30 34
7 7 7 9 10 11 11 14 16 17 16 14 12 13 15 18 21 23 24 24 23 23 24 22 22 20 19 14 18 24 27 31
7 5 7 8 10 11 13 13 14 16 17 18 19 20 20 19 20 20 23 21 19 19 23 28 31 30 27 17 15 18 23 26
10 7 10 10 9 10 11 14 14 15 14 14 16 16 16 18 20 20 22 24 23 23 25 29 32 33 34 14 12 14 17 19
12 12 11 14 11 13 15 16 16 18 15 12 14 13 15 18 19 19 21 24 27 28 29 29 36 35 35 23 16 11 13 15
15 14 15 14 15 16 20 22 20 20 18 14 12 12 17 18 20 22 23 24 27 30 33 33 34 35 33 28 13 10 10 9
18 18 17 18 18 20 21 24 24 21 19 16 14 14 14 18 22 25 27 30 31 32 33 36 37 36 35 29 19 14 9 9
22 22 20 21 23 23 25 24 24 22 22 20 19 19 19 19 21 26 28 32 35 38 40 39 40 40 40 29 24 13 17 19
27 26 23 27 26 28 28 26 27 24 24 24 23 22 21 21 23 26 29 31 34 36 41 42 38 35 37 41 26 25 27 28
31 31 30 29 29 28 29 29 29 29 26 26 26 26 25 25 28 30 32 32 35 36 38 36 36 35 32 32 30 29 35 35
35 36 33 33 29 30 32 33 32 31 31 28 27 28 28 27 28 30 32 34 35 35 35 34 33 32 27 28 35 36 44 43
42 37 35 37 32 32 34 34 36 36 34 31 29 29 31 30 30 31 34 36 36 36 37 39 39 37 34 36 32 36 37 42
45 39 39 41 36 35 36 39 39 38 36 34 32 33 34 33 32 33 35 38 36 37 38 40 41 43 43 42 42 40 38 45
48 44 44 43 42 41 40 42 43 39 35 33 33 36 35 34 36 36 38 38 39 42 43 45 46 47 47 47 48 46 43 44
50 47 47 47 47 44 45 46 46 40 35 34 36 37 37 37 40 39 39 40 44 47 49 51 52 54 56 56 53 49 49 48
50 50 49 51 52 47 46 47 46 42 37 35 37 39 37 39 40 40 42 46 49 52 54 56 57 59 62 62 60 55 54 55
50 54 54 55 51 48 48 49 48 44 37 37 39 39 38 39 39 42 47 51 53 55 58 60 62 66 67 65 64 61 57 54
53 56 57 57 54 53 52 51 49 45 40 41 41 41 41 40 41 45 50 54 56 59 62 65 68 69 69 64 62 60 53 46

GFSFLT2_250_spd_291.txt.gz
Wind_Speed
11 3 6 9 11 11 2 7 12 13 12 14 13 13 15 15 16 17 19 17 14 14 14 15 13 9 11 12 16 23 30 32
12 5 3 15 3 5 10 7 10 12 12 11 10 11 12 13 14 15 17 19 22 22 20 19 17 17 13 8 19 22 27 32
14 9 1 4 9 15 9 6 7 13 11 9 7 8 9 11 11 12 15 20 21 21 21 22 21 22 20 12 10 15 21 25
15 12 4 2 5 8 13 27 6 5 10 9 5 5 7 8 8 11 15 17 21 23 25 26 28 26 26 17 16 6 11 20
15 17 12 8 2 5 16 22 12 5 5 6 3 3 3 6 9 14 17 18 19 22 26 29 31 31 30 28 23 18 8 10
15 16 16 14 12 7 6 9 8 5 4 2 2 5 7 9 11 13 17 19 21 22 24 27 29 29 29 30 30 28 21 11
17 17 16 17 16 16 12 10 10 8 5 5 8 10 12 13 14 16 18 20 21 22 25 23 25 26 28 31 31 33 28 16
22 20 19 19 18 18 17 16 15 12 10 11 12 14 16 18 20 21 22 23 25 24 23 23 24 25 25 25 27 28 28 25
28 24 22 22 22 21 20 19 18 17 15 16 17 18 20 22 23 26 26 26 28 27 27 25 23 25 26 26 25 24 24 24
31 27 25 26 25 24 25 23 21 20 18 19 20 22 23 23 26 27 28 28 28 28 28 28 28 28 28 29 29 26 22 22
31 29 30 27 31 28 29 27 25 23 24 23 21 20 23 25 27 28 29 28 29 29 29 30 31 32 32 33 33 32 28 26
34 34 31 34 34 34 33 33 30 28 29 26 25 21 26 23 26 28 30 29 30 31 32 32 34 33 33 34 36 37 35 34
36 35 37 37 36 36 34 35 34 33 32 30 28 27 25 25 27 30 32 32 31 33 33 34 36 36 35 37 39 39 38 38
41 40 43 36 41 36 33 35 37 38 37 34 33 30 28 28 28 31 33 34 33 36 37 37 38 38 38 40 41 41 42 44
45 45 43 38 43 36 38 39 39 40 40 39 36 34 31 31 33 33 35 36 35 38 40 40 40 40 40 42 44 45 48 50
49 45 44 44 44 40 41 40 41 41 42 40 37 36 35 32 35 39 39 39 39 40 43 42 43 43 44 46 48 50 53 57
51 48 50 46 48 43 43 43 42 43 42 41 39 37 36 35 38 41 42 43 44 44 45 45 45 45 47 49 51 54 59 63
55 55 55 52 50 44 45 46 42 44 42 42 40 38 37 39 42 43 44 44 44 46 47 47 47 48 50 51 54 59 64 68
61 54 53 51 52 47 46 47 44 44 43 42 42 42 39 39 42 45 47 47 47 48 49 49 49 50 52 55 59 64 69 72